N56WC MYAK-MYNN

Flight info

Callsign N56WC
Flight time 0h 52m
Altitude 5500
Route DIRECT
Aircraft SREY/L-SDFG/C

Departure

Time 2026-04-26 10:55
Airport Congo Town Airport (MYAK)

Arrival

Time 2026-04-26 11:47
Airport Lynden Pindling International Airport (MYNN)
Time Latitude Longitude Altitude Speed Heading
2026-04-26 10:38 24.15656 -77.58325 18 ft 0 kts 86°
2026-04-26 10:50 24.15652 -77.58322 18 ft 2 kts 251°
2026-04-26 10:50 24.15653 -77.58325 18 ft 1 kts 335°
2026-04-26 10:50 24.15664 -77.58344 18 ft 3 kts 321°
2026-04-26 10:50 24.15692 -77.58349 18 ft 6 kts
2026-04-26 10:51 24.15742 -77.58334 18 ft 8 kts 339°
2026-04-26 10:51 24.15762 -77.58396 18 ft 8 kts 275°
2026-04-26 10:51 24.15773 -77.58467 18 ft 10 kts 275°
2026-04-26 10:52 24.15781 -77.58562 18 ft 16 kts 284°
2026-04-26 10:52 24.15790 -77.58640 18 ft 0 kts 104°
2026-04-26 10:52 24.15790 -77.58635 18 ft 0 kts 74°
2026-04-26 10:52 24.15790 -77.58634 18 ft 0 kts 74°
2026-04-26 10:53 24.15790 -77.58633 18 ft 1 kts 71°
2026-04-26 10:53 24.15800 -77.58632 18 ft 4 kts 329°
2026-04-26 10:53 24.15825 -77.58657 18 ft 2 kts 357°
2026-04-26 10:54 24.15830 -77.58652 18 ft 0 kts 75°
2026-04-26 10:54 24.15839 -77.58559 19 ft 40 kts 96°
2026-04-26 10:54 24.15781 -77.58201 396 ft 45 kts 104°
2026-04-26 10:54 24.15621 -77.57858 799 ft 42 kts 122°
2026-04-26 10:55 24.15451 -77.57595 1121 ft 53 kts 121°
2026-04-26 10:55 24.15216 -77.57213 1405 ft 68 kts 122°
2026-04-26 10:55 24.15127 -77.56682 1599 ft 82 kts 72°
2026-04-26 10:55 24.15431 -77.56415 1712 ft 91 kts 23°
2026-04-26 10:56 24.16211 -77.56713 1927 ft 88 kts 329°
2026-04-26 10:56 24.16695 -77.57103 2069 ft 85 kts 325°
2026-04-26 10:56 24.17004 -77.57365 2161 ft 84 kts 325°
2026-04-26 10:56 24.17607 -77.57876 2351 ft 82 kts 326°
2026-04-26 10:57 24.18080 -77.58213 2496 ft 80 kts 336°
2026-04-26 10:57 24.18599 -77.58420 2644 ft 78 kts 352°
2026-04-26 10:57 24.19125 -77.58493 2793 ft 75 kts
2026-04-26 10:57 24.19638 -77.58483 2940 ft 74 kts 10°
2026-04-26 10:58 24.20116 -77.58434 3077 ft 72 kts 13°
2026-04-26 10:58 24.20614 -77.58365 3224 ft 71 kts 14°
2026-04-26 10:58 24.21102 -77.58292 3371 ft 70 kts 13°
2026-04-26 10:58 24.21587 -77.58220 3517 ft 71 kts 13°
2026-04-26 10:59 24.22074 -77.58150 3671 ft 71 kts 12°
2026-04-26 10:59 24.22400 -77.58103 3771 ft 71 kts 12°
2026-04-26 10:59 24.22888 -77.58034 3920 ft 70 kts 12°
2026-04-26 10:59 24.23374 -77.57967 4069 ft 70 kts 12°
2026-04-26 11:00 24.23855 -77.57900 4217 ft 69 kts 12°
2026-04-26 11:00 24.24327 -77.57834 4363 ft 69 kts 12°
2026-04-26 11:00 24.24795 -77.57769 4509 ft 68 kts 11°
2026-04-26 11:00 24.25267 -77.57704 4658 ft 67 kts 11°
2026-04-26 11:01 24.25722 -77.57640 4803 ft 66 kts 10°
2026-04-26 11:01 24.26181 -77.57577 4947 ft 66 kts 10°
2026-04-26 11:01 24.26637 -77.57514 5093 ft 65 kts 10°
2026-04-26 11:01 24.27083 -77.57452 5236 ft 63 kts
2026-04-26 11:02 24.27506 -77.57394 5372 ft 62 kts
2026-04-26 11:02 24.27941 -77.57334 5489 ft 64 kts
2026-04-26 11:02 24.28402 -77.57269 5542 ft 72 kts
2026-04-26 11:02 24.28929 -77.57190 5537 ft 81 kts 10°
2026-04-26 11:03 24.29502 -77.57104 5513 ft 85 kts
2026-04-26 11:03 24.30089 -77.57017 5501 ft 85 kts
2026-04-26 11:03 24.30681 -77.56932 5499 ft 85 kts
2026-04-26 11:03 24.31259 -77.56850 5500 ft 85 kts
2026-04-26 11:04 24.31855 -77.56767 5504 ft 88 kts
2026-04-26 11:04 24.32476 -77.56680 5506 ft 90 kts
2026-04-26 11:04 24.33106 -77.56591 5503 ft 91 kts
2026-04-26 11:04 24.33736 -77.56505 5500 ft 91 kts
2026-04-26 11:05 24.34357 -77.56421 5499 ft 91 kts
2026-04-26 11:05 24.34988 -77.56334 5501 ft 91 kts
2026-04-26 11:05 24.35615 -77.56247 5501 ft 91 kts
2026-04-26 11:05 24.36246 -77.56160 5501 ft 91 kts
2026-04-26 11:06 24.36871 -77.56072 5502 ft 91 kts
2026-04-26 11:06 24.37509 -77.55983 5500 ft 91 kts
2026-04-26 11:06 24.38138 -77.55895 5500 ft 91 kts
2026-04-26 11:06 24.38761 -77.55807 5500 ft 91 kts
2026-04-26 11:07 24.39389 -77.55719 5500 ft 91 kts
2026-04-26 11:07 24.40020 -77.55630 5500 ft 91 kts
2026-04-26 11:07 24.40654 -77.55542 5501 ft 91 kts
2026-04-26 11:07 24.41282 -77.55454 5500 ft 91 kts
2026-04-26 11:08 24.41912 -77.55366 5500 ft 91 kts
2026-04-26 11:08 24.42540 -77.55278 5500 ft 91 kts
2026-04-26 11:08 24.43169 -77.55189 5500 ft 91 kts
2026-04-26 11:08 24.43800 -77.55101 5500 ft 91 kts
2026-04-26 11:09 24.44431 -77.55013 5500 ft 91 kts
2026-04-26 11:09 24.45063 -77.54924 5500 ft 91 kts
2026-04-26 11:09 24.45695 -77.54835 5500 ft 91 kts
2026-04-26 11:09 24.46326 -77.54747 5500 ft 91 kts
2026-04-26 11:10 24.46957 -77.54658 5501 ft 91 kts
2026-04-26 11:10 24.47591 -77.54569 5500 ft 91 kts
2026-04-26 11:10 24.48218 -77.54481 5500 ft 91 kts
2026-04-26 11:10 24.48846 -77.54393 5500 ft 91 kts
2026-04-26 11:11 24.49484 -77.54304 5501 ft 91 kts
2026-04-26 11:11 24.50105 -77.54216 5501 ft 91 kts
2026-04-26 11:11 24.50738 -77.54128 5500 ft 91 kts
2026-04-26 11:11 24.51375 -77.54040 5500 ft 91 kts
2026-04-26 11:12 24.51997 -77.53955 5500 ft 91 kts
2026-04-26 11:12 24.52628 -77.53868 5500 ft 91 kts
2026-04-26 11:12 24.53259 -77.53781 5500 ft 91 kts
2026-04-26 11:12 24.53890 -77.53693 5500 ft 91 kts
2026-04-26 11:13 24.54525 -77.53604 5500 ft 91 kts
2026-04-26 11:13 24.55156 -77.53517 5500 ft 91 kts
2026-04-26 11:13 24.55789 -77.53431 5500 ft 91 kts
2026-04-26 11:13 24.56420 -77.53345 5500 ft 91 kts
2026-04-26 11:14 24.57041 -77.53259 5500 ft 91 kts
2026-04-26 11:14 24.57673 -77.53171 5500 ft 91 kts
2026-04-26 11:14 24.58301 -77.53083 5500 ft 91 kts
2026-04-26 11:14 24.58938 -77.52993 5500 ft 91 kts
2026-04-26 11:15 24.59564 -77.52905 5501 ft 91 kts
2026-04-26 11:15 24.60191 -77.52817 5500 ft 91 kts
2026-04-26 11:15 24.60822 -77.52728 5501 ft 91 kts
2026-04-26 11:15 24.61452 -77.52639 5501 ft 91 kts
2026-04-26 11:16 24.62088 -77.52553 5501 ft 91 kts
2026-04-26 11:16 24.62718 -77.52471 5501 ft 91 kts
2026-04-26 11:16 24.63350 -77.52386 5501 ft 91 kts
2026-04-26 11:16 24.63970 -77.52298 5501 ft 91 kts
2026-04-26 11:17 24.64599 -77.52195 5501 ft 91 kts
2026-04-26 11:17 24.65229 -77.52093 5501 ft 91 kts
2026-04-26 11:17 24.65858 -77.51997 5501 ft 91 kts
2026-04-26 11:17 24.66485 -77.51906 5502 ft 91 kts
2026-04-26 11:18 24.67117 -77.51816 5502 ft 91 kts
2026-04-26 11:18 24.67745 -77.51727 5502 ft 91 kts
2026-04-26 11:18 24.68371 -77.51639 5502 ft 91 kts
2026-04-26 11:18 24.69004 -77.51550 5502 ft 91 kts
2026-04-26 11:19 24.69636 -77.51462 5503 ft 91 kts
2026-04-26 11:19 24.70269 -77.51373 5503 ft 91 kts
2026-04-26 11:19 24.70900 -77.51284 5503 ft 91 kts
2026-04-26 11:19 24.71521 -77.51196 5503 ft 91 kts
2026-04-26 11:20 24.72153 -77.51107 5504 ft 91 kts
2026-04-26 11:20 24.72571 -77.51049 5504 ft 91 kts
2026-04-26 11:20 24.73416 -77.50932 5504 ft 91 kts
2026-04-26 11:20 24.74040 -77.50843 5505 ft 91 kts
2026-04-26 11:21 24.74680 -77.50754 5504 ft 91 kts
2026-04-26 11:21 24.75302 -77.50665 5505 ft 91 kts
2026-04-26 11:21 24.75932 -77.50576 5505 ft 91 kts
2026-04-26 11:21 24.76566 -77.50486 5505 ft 91 kts
2026-04-26 11:22 24.77193 -77.50397 5506 ft 91 kts
2026-04-26 11:22 24.77824 -77.50308 5506 ft 91 kts
2026-04-26 11:22 24.78452 -77.50219 5506 ft 91 kts
2026-04-26 11:22 24.79084 -77.50130 5507 ft 91 kts
2026-04-26 11:23 24.79715 -77.50041 5507 ft 91 kts
2026-04-26 11:23 24.80344 -77.49952 5508 ft 91 kts
2026-04-26 11:23 24.80975 -77.49863 5508 ft 91 kts
2026-04-26 11:23 24.81601 -77.49775 5509 ft 91 kts
2026-04-26 11:24 24.82227 -77.49687 5509 ft 91 kts
2026-04-26 11:24 24.82864 -77.49597 5509 ft 91 kts
2026-04-26 11:24 24.83483 -77.49510 5509 ft 91 kts
2026-04-26 11:24 24.84124 -77.49419 5510 ft 91 kts
2026-04-26 11:25 24.84748 -77.49330 5511 ft 91 kts
2026-04-26 11:25 24.85376 -77.49242 5510 ft 91 kts
2026-04-26 11:25 24.86006 -77.49153 5511 ft 91 kts
2026-04-26 11:25 24.86635 -77.49065 5511 ft 91 kts
2026-04-26 11:26 24.87266 -77.48976 5511 ft 91 kts
2026-04-26 11:26 24.87897 -77.48886 5512 ft 91 kts
2026-04-26 11:26 24.88524 -77.48798 5521 ft 86 kts
2026-04-26 11:26 24.89073 -77.48720 5446 ft 77 kts
2026-04-26 11:27 24.89611 -77.48644 5306 ft 78 kts
2026-04-26 11:27 24.90153 -77.48566 5159 ft 79 kts
2026-04-26 11:27 24.90699 -77.48488 5011 ft 80 kts
2026-04-26 11:27 24.91259 -77.48408 4860 ft 80 kts
2026-04-26 11:28 24.91809 -77.48330 4712 ft 81 kts
2026-04-26 11:28 24.92367 -77.48251 4563 ft 81 kts
2026-04-26 11:28 24.92931 -77.48171 4413 ft 82 kts 10°
2026-04-26 11:28 24.93494 -77.48092 4264 ft 82 kts 10°
2026-04-26 11:29 24.94060 -77.48011 4116 ft 82 kts 10°
2026-04-26 11:29 24.94632 -77.47931 3965 ft 83 kts 10°
2026-04-26 11:29 24.95201 -77.47850 3817 ft 83 kts 10°
2026-04-26 11:29 24.95784 -77.47767 3665 ft 84 kts 10°
2026-04-26 11:30 24.96357 -77.47687 3517 ft 84 kts 11°
2026-04-26 11:30 24.96739 -77.47632 3418 ft 84 kts 11°
2026-04-26 11:30 24.97523 -77.47521 3217 ft 85 kts 11°
2026-04-26 11:30 24.98105 -77.47439 3068 ft 85 kts 11°
2026-04-26 11:31 24.98658 -77.47361 2928 ft 85 kts 11°
2026-04-26 11:31 24.99243 -77.47277 2783 ft 86 kts 11°
2026-04-26 11:31 24.99835 -77.47193 2628 ft 85 kts 11°
2026-04-26 11:31 25.00425 -77.47109 2480 ft 85 kts 11°
2026-04-26 11:32 25.01017 -77.47025 2330 ft 85 kts 10°
2026-04-26 11:32 25.01605 -77.46942 2180 ft 85 kts 10°
2026-04-26 11:32 25.02192 -77.46859 2030 ft 85 kts 10°
2026-04-26 11:32 25.02771 -77.46777 1883 ft 85 kts
2026-04-26 11:33 25.03359 -77.46694 1733 ft 85 kts
2026-04-26 11:33 25.03951 -77.46610 1594 ft 84 kts
2026-04-26 11:33 25.04515 -77.46531 1517 ft 79 kts
2026-04-26 11:33 25.05027 -77.46459 1511 ft 72 kts
2026-04-26 11:34 25.05511 -77.46392 1524 ft 67 kts
2026-04-26 11:34 25.05969 -77.46331 1533 ft 66 kts
2026-04-26 11:34 25.06428 -77.46269 1531 ft 67 kts
2026-04-26 11:34 25.06892 -77.46239 1535 ft 66 kts
2026-04-26 11:35 25.07351 -77.46226 1537 ft 66 kts
2026-04-26 11:35 25.07815 -77.46239 1536 ft 67 kts 360°
2026-04-26 11:35 25.08288 -77.46261 1535 ft 68 kts
2026-04-26 11:35 25.08596 -77.46263 1535 ft 68 kts
2026-04-26 11:36 25.09182 -77.46056 1531 ft 68 kts 47°
2026-04-26 11:36 25.09339 -77.45587 1538 ft 66 kts 84°
2026-04-26 11:36 25.09399 -77.45085 1545 ft 66 kts 81°
2026-04-26 11:36 25.09492 -77.44583 1542 ft 67 kts 81°
2026-04-26 11:37 25.09572 -77.44070 1538 ft 68 kts 82°
2026-04-26 11:37 25.09587 -77.43558 1533 ft 67 kts 103°
2026-04-26 11:37 25.09389 -77.43107 1537 ft 66 kts 120°
2026-04-26 11:37 25.09148 -77.42674 1538 ft 66 kts 121°
2026-04-26 11:38 25.08914 -77.42240 1537 ft 66 kts 122°
2026-04-26 11:38 25.08667 -77.41808 1536 ft 66 kts 121°
2026-04-26 11:38 25.08413 -77.41384 1536 ft 66 kts 126°
2026-04-26 11:38 25.08133 -77.40983 1536 ft 66 kts 128°
2026-04-26 11:39 25.07850 -77.40579 1538 ft 66 kts 127°
2026-04-26 11:39 25.07571 -77.40176 1540 ft 66 kts 127°
2026-04-26 11:39 25.07291 -77.39767 1543 ft 66 kts 127°
2026-04-26 11:39 25.07005 -77.39351 1599 ft 72 kts 135°
2026-04-26 11:40 25.06562 -77.39184 1576 ft 80 kts 184°
2026-04-26 11:40 25.06148 -77.39577 1543 ft 84 kts 251°
2026-04-26 11:40 25.06027 -77.40205 1545 ft 83 kts 255°
2026-04-26 11:40 25.05801 -77.40781 1487 ft 78 kts 244°
2026-04-26 11:41 25.05546 -77.41306 1400 ft 79 kts 242°
2026-04-26 11:42 25.05233 -77.44894 1041 ft 69 kts 317°
2026-04-26 11:43 25.05477 -77.45120 1040 ft 68 kts 322°
2026-04-26 11:43 25.05961 -77.45517 1026 ft 63 kts 325°
2026-04-26 11:43 25.06296 -77.45816 1024 ft 61 kts 320°
2026-04-26 11:43 25.06625 -77.46099 1029 ft 59 kts 325°
2026-04-26 11:44 25.06856 -77.46261 1023 ft 60 kts 330°
2026-04-26 11:44 25.07213 -77.46478 1038 ft 58 kts 333°
2026-04-26 11:44 25.07569 -77.46693 1039 ft 58 kts 326°
2026-04-26 11:44 25.07821 -77.47022 939 ft 59 kts 296°
2026-04-26 11:45 25.07851 -77.47453 804 ft 60 kts 257°
2026-04-26 11:45 25.07679 -77.47851 701 ft 61 kts 237°
2026-04-26 11:45 25.07411 -77.48192 653 ft 61 kts 221°
2026-04-26 11:45 25.07068 -77.48425 653 ft 56 kts 202°
2026-04-26 11:46 25.06705 -77.48527 632 ft 54 kts 185°
2026-04-26 11:46 25.06342 -77.48513 565 ft 52 kts 172°
2026-04-26 11:46 25.06002 -77.48403 397 ft 53 kts 154°
2026-04-26 11:46 25.05729 -77.48167 256 ft 51 kts 134°
2026-04-26 11:47 25.05495 -77.47889 146 ft 46 kts 134°
2026-04-26 11:47 25.05266 -77.47638 44 ft 46 kts 134°
2026-04-26 11:47 25.05061 -77.47416 20 ft 39 kts 136°
2026-04-26 11:47 25.04920 -77.47266 19 ft 21 kts 133°
2026-04-26 11:48 25.04840 -77.47171 19 ft 15 kts 118°
2026-04-26 11:48 25.04829 -77.47141 19 ft 3 kts 112°
2026-04-26 11:48 25.04813 -77.47102 19 ft 7 kts 66°
2026-04-26 11:48 25.04827 -77.47049 19 ft 4 kts 59°
2026-04-26 11:49 25.04840 -77.47020 19 ft 8 kts 68°
2026-04-26 11:49 25.04853 -77.46961 19 ft 4 kts 98°
2026-04-26 11:49 25.04821 -77.46913 19 ft 12 kts 138°
2026-04-26 11:49 25.04758 -77.46828 19 ft 16 kts 135°
2026-04-26 11:50 25.04680 -77.46741 19 ft 16 kts 136°
2026-04-26 11:50 25.04604 -77.46650 19 ft 15 kts 135°
2026-04-26 11:50 25.04574 -77.46575 19 ft 9 kts 97°
2026-04-26 11:50 25.04589 -77.46528 19 ft 1 kts 87°
2026-04-26 11:51 25.04603 -77.46523 19 ft 9 kts 323°
2026-04-26 11:51 25.04686 -77.46561 19 ft 14 kts 54°
2026-04-26 11:51 25.04699 -77.46504 19 ft 6 kts 126°
2026-04-26 11:52 25.04690 -77.46466 19 ft 9 kts 95°
2026-04-26 11:52 25.04669 -77.46368 19 ft 14 kts 80°
2026-04-26 11:52 25.04653 -77.46283 19 ft 5 kts 54°
2026-04-26 11:52 25.04663 -77.46280 19 ft 1 kts 298°
2026-04-26 11:53 25.04662 -77.46287 19 ft 0 kts 227°